星链-32745 (STARLINK-32745)

导读 | 星芒AI

STARLINK-32745 是 SpaceX 星链计划中的一颗低轨卫星,属于第三代星链(Starlink Gen3)星座的一部分。该卫星于2024年发射,旨在提升全球互联网覆盖和连接速度。其搭载先进通信设备,支持更高带宽和更低延迟,为偏远地区提供稳定网络服务。星链项目致力于构建全球卫星互联网系统,推动全球数字包容性发展。

基本信息
目录编号:
62755
目录名称:
STARLINK-32745
国际标识:
2025-014W
轨道中心:
EARTH
卫星名称:
星链-32745
卫星全名:
星链-32745 (STARLINK-32745)
卫星状态:
在轨 (已飞行290 天)
发射日期:
2025-01-21 UTC
国别 :
美国 (US)
星等 :
--
轨道信息
数据来源 国际轨道数据
星历时间: 2025-11-06T21:19:03+0800
1天前
查看轨道信息
半长轴: 6861.11km
偏心率: 0.0001801
轨道倾角: 43.002°
近地点辐角 267.915°
升交点赤经 129.951°
平近点角 92.150°
近地点: 481.739km
远地点: 484.211km
周期: 94.265分钟
每日圈数: 15.276055
详细信息
固有亮度:
5
最大亮度:
2.5
卫星平台:
Starlink V1.0
覆盖范围:
全球
运营商:
太空探索技术公司
运营商所在国:
美国
制造商(研发单位):
太空探索技术公司
制造商所在国:
美国
使用方式:
暂无
卫星简介
Starlink 计划是 SpaceX 推出的全球卫星互联网项目,通过发射低轨道卫星,为全球尤其是偏远地区提供高速、低延迟的互联网服务。自 2019 年起,Starlink 已部署数千颗卫星,旨在缩小全球数字鸿沟,推动互联网普及。该项目还为军事、航空等行业提供通信支持,带来广泛经济效益。
2D轨道图
3D轨道图
轨道高度分析图
轨道倾角分析图
轨道综合分析图
查看轨道综合分析图